Regional Weather Roundup
Issued by NWS

Home | Current Version | Previous Version | Text Only | Print | Product List | Glossary On
Versions: 1 2 3 4 5 6 7 8 9 10 11 12 13 14 15 16 17 18 19 20 21 22 23 24 25 26 27 28 29 30 31 32 33 34 35 36 37 38 39 40 41 42 43 44 45 46 47 48 49 50
000
ASUS43 KMKX 030811
RWRWI

WISCONSIN REGIONAL WEATHER ROUNDUP
NATIONAL WEATHER SERVICE MILWAUKEE/SULLIVAN WI
300 AM CDT THU SEP 03 2015

NOTE: "FAIR" INDICATES FEW OR NO CLOUDS BELOW 12,000 FEET WITH NO
SIGNIFICANT WEATHER AND/OR OBSTRUCTIONS TO VISIBILITY.

WIZ001-002-006>008-014>016-023>028-030900-
NORTHWEST WISCONSIN

CITY           SKY/WX    TMP DP  RH WIND       PRES   REMARKS
SUPERIOR ARPT  FOG       59  59 100 E5        29.97S VSB 1/4
ASHLAND        FOG       62  62 100 CALM      29.97S VSB 1/4
HAYWARD        PTCLDY    60  59  96 N6        29.96S FOG
SIREN          MOCLDY    64  63  97 CALM      29.94S
CUMBERLAND     PTCLDY    64  63  94 CALM      29.95R FOG
RICE LAKE      FOG       62  61  96 CALM      29.95S VSB 1/4
CHETEK         PTCLDY   N/A N/A N/A MISG      29.94R
LADYSMITH      PTCLDY    65  64  96 CALM      29.97S FOG
EAU CLAIRE     CLOUDY    69  67  93 NE5       29.91S
MENOMONIE      PTCLDY    66  66  99 CALM      29.92R FOG
NEW RICHMOND   PTCLDY    64  64 100 CALM      29.92S FOG
OSCEOLA        CLOUDY    66  66 100 E5        29.94S
$$

WIZ003>005-009-010-017-018-030900-
NORTH CENTRAL WISCONSIN

CITY           SKY/WX    TMP DP  RH WIND       PRES   REMARKS
MANITOWISH WTR CLOUDY    60  60 100 CALM      29.98S FOG
ARBOR VITAE    CLOUDY    65  63  95 CALM      29.97F
WOODRUFF       CLOUDY    65  63  95 CALM      29.97F
RHINELANDER    CLOUDY    65  63  93 CALM      29.97S
EAGLE RIVER    CLOUDY    64  64  99 E3        29.96F
LAND O LAKES   CLOUDY    63  63  98 CALM      29.98S FOG
PHILLIPS       CLOUDY    63  63 100 E3        29.96S FOG
TOMAHAWK       CLOUDY    64  63  96 CALM      29.96F
MEDFORD        CLOUDY    66  66 100 NE5       29.95S FOG
MERRILL        CLOUDY    66  66 100 NE3       29.95S
$$

WIZ029-030-035-036-043>047-030900-
CENTRAL WISCONSIN

CITY           SKY/WX    TMP DP  RH WIND       PRES   REMARKS
WAUSAU         MOCLDY    68  66  93 N3        29.92S
MOSINEE        CLOUDY    66  66 100 CALM      29.94S
MARSHFIELD     CLOUDY    70  65  84 NE5       29.94R
STEVENS POINT  CLOUDY    67  66  98 CALM      29.93S
WAUPACA        LGT RAIN  71  70  98 CALM      29.92S
WAUTOMA        MOCLDY    71  71 100 CALM      29.92R
WISC RAPIDS    CLOUDY    71  68  90 NE5       29.93S
CAMP DOUGLAS   CLEAR     71  71 100 W8        29.90S
$$

WIZ011>013-019>022-031-037>040-048>050-030900-
NORTHEAST WISCONSIN

CITY           SKY/WX    TMP DP  RH WIND       PRES   REMARKS
ANTIGO         CLOUDY    65  65  99 N6        29.94S
SHAWANO        NOT AVBL
OCONTO         CLOUDY    66  66 100 CALM      29.87S
STURGEON BAY   CLOUDY    66  63  88 E7        29.90F
GREEN BAY      LGT RAIN  69  68  96 SW5       29.88F FOG
MANITOWOC      LGT RAIN  73  69  87 MISG      29.88F
APPLETON       TSTM      68  68 100 NW8       29.89S VSB 1
CLINTONVILLE   CLOUDY    68  68 100 NW5       29.89F
OSHKOSH        MOCLDY    73  68  84 NW7       29.90R
$$

WIZ032>034-041-042-053>061-030900-
SOUTHWEST WISCONSIN

CITY           SKY/WX    TMP DP  RH WIND       PRES   REMARKS
LA CROSSE      CLEAR     73  69  87 CALM      29.89S
SPARTA         CLEAR     66  64  94 CALM      29.92R
VIROQUA          N/A     69  69 100 SW5       29.93S
BOSCOBEL       CLEAR     73  69  87 CALM      29.91S
PRAIRIE DU CHI MOCLDY    72  68  88 CALM      29.91S
PLATTEVILLE    PTCLDY    71  69  94 S5        29.93F
$$

WIZ056-057-062-063-064-067-068-030900-
SOUTH CENTRAL WISCONSIN

CITY           SKY/WX    TMP DP  RH WIND       PRES   REMARKS
REEDSBURG      CLEAR     73  69  86 W5        29.92R
BARABOO/DELLS  CLEAR     73  66  80 W3        29.92S
LONE ROCK      CLOUDY    69  67  93 CALM      29.92S
MINERAL POINT  PTCLDY    73  70  88 S5        29.94S
MADISON        CLEAR     73  68  84 CALM      29.92S
MIDDLETON      CLEAR     74  67  79 W5        29.93S
WATERTOWN      CLOUDY    71  71 100 CALM      29.92S
MONROE         PTCLDY    73  68  83 SW10      29.94S
JANESVILLE     CLEAR     72  70  94 S3        29.93S
$$

WIZ051-052-058>065-066-070>072-030900-
SOUTHEAST WISCONSIN

CITY           SKY/WX    TMP DP  RH WIND       PRES   REMARKS
MILWAUKEE      PTCLDY    74  69  85 SW8       29.93R
WAUKESHA       CLEAR     72  66  83 CALM      29.95S
MILWAUKEE/TIMM MOCLDY    72  66  83 CALM      29.94R
RACINE         PTCLDY    74  68  81 SW5       29.95S
BURLINGTON     PTCLDY    69  67  94 S5        29.94S
KENOSHA        MOCLDY    73  68  84 SW5       29.94S
FOND DU LAC    MOCLDY    73  69  87 SW7       29.90F
SHEBOYGAN      PTCLDY    71  69  93 S5        29.89F FOG
WEST BEND      PTCLDY    70  66  88 CALM      29.91F
JUNEAU         MOCLDY    71  69  92 S6        29.92F
$$

LSZ147-162-030900-
LAKE SUPERIOR

STATION/POSITION TIME  TEMP    WIND        PRES    WAVE
                       AIR SEA DIR/SP/G            HT/PER
                 (UTC) (F)     (DEG/KT/KT) (MB)    (FT/S)
W MID LAKE BUOY  0750   57 56   30/  6/  8 1014.9R   0
DEVILS ISLAND    0800   57      40/ 12/ 13 1015.1R
PORT WING        0700   59      30/  9/ 11 1014.9F
SAXON HARBOR     0740   59        CALM     1014.2S
$$

LMZ867-665-643>646-030900-
LAKE MICHIGAN

STATION/POSITION TIME  TEMP    WIND        PRES    WAVE
                       AIR SEA DIR/SP/G            HT/PER
                 (UTC) (F)     (DEG/KT/KT) (MB)    (FT/S)
CHAMBERS ISLAND  0700   68      90/  7/  9 1012.5F
S GREEN BAY BUOY 0800   67 66   90/  4/  6 1013.1F
N MID LAKE BUOY  0750   66 66   50/ 14/ 17 1013.2F   1/ 3
NORTHPORT PIER   0800   66      90/ 15/ 21 1012.5F
SISTER BAY       0741   66     110/ 15/ 21   N/A
ALGOMA LAKESHORE 0714             CALM       N/A
KEWAUNEE LAKESHO 0700   55      60/  3/  5 1011.2F
SHEBOYGAN LAKESH 0800   71     190/  7/  7 1012.0F
PORT WASHINGTON  0700   65     220/  1/  6 1013.5F
ATWATER BUOY     0800   59     150/  8/  8 1014.5F
MILWAUKEE LAKESH 0710   69     210/  3/  4   N/A
S MID LAKE BUOY  0750   74 71  200/  8/  8 1013.2S   0
KENOSHA   LAKESH 0800   77     230/  7/ 10 1013.5R
$$

TC  - TEMPERATURE IN CELSIUS
VSB - VISIBILITY IN STATUTE MILES
WCI - WIND CHILL INDEX
HX  - HEAT INDEX



USA.gov is the U.S. government's official web portal to all federal, state and local government web resources and services.